Hourly Data Report for August 08, 2003

SHERBROOKE A
QUEBEC

45°26'00.000" N
71°41'00.000" W
241.40 m
7028124
71610
YSC

Download Data

Hourly Data (August 2003)
Hourly Data Report for August 8, 2003
TIME
LST
Temp Definition
°C
Dew Point Definition
°C
Rel Hum Definition
%
Precip. Amount Definition
mm

Wind Dir Definition
10's deg

Wind Spd Definition
km/h
Visibility Definition
km
Stn Press Definition
kPa
Hmdx Definition


Wind Chill Definition


Weather Definition


00:00 19.4 18.1 92   7 4 4.8 98.55      
01:00 19.2 18.0 93   9 4 4.8 98.57      
02:00 19.0 17.8 93   7 4 3.5 98.53      
03:00 17.8 16.8 94     0 1.3 98.53      
04:00 18.2 17.3 94   7 6 2.7 98.51      
05:00 17.8 16.9 94     0 2.1 98.53      
06:00 18.1 17.4 96   7 6 0.3 98.54      
07:00 18.8 18.1 96   6 4 0.4 98.55     Fog
08:00 20.9 19.3 91   7 6 9.7 98.55 28   Fog
09:00 23.3 19.8 81   36 6 16.1 98.55 31   Mainly Clear
10:00 24.4 20.0 76   2 4 16.1 98.53 32   Mainly Clear
11:00 23.0 20.0 83   11 11 9.7 98.54 31   Rain Showers, Fog
12:00 24.5 21.1 81   7 6 19.3 98.51 33   Mostly Cloudy
13:00 24.4 20.3 78   11 7 19.3 98.46 32   Mostly Cloudy
14:00 25.6 20.6 74   14 7 19.3 98.44 34   Mainly Clear
15:00 26.3 19.6 67     0 16.1 98.44 34   Mainly Clear
16:00 25.5 20.3 73   3 4 19.3 98.43 33   Mostly Cloudy
17:00 25.8 20.8 74   35 4 12.9 98.45 34    
18:00 25.3 20.3 74   7 6 11.3 98.49 33    
19:00 23.4 20.7 85   11 7 9.7 98.52 32    
20:00 21.3 19.0 87     0 15.0 98.57 28    
21:00 20.2 18.4 89     0 12.9 98.61 27    
22:00 19.8 18.4 92     0 9.7 98.64      
23:00 18.8 18.0 95   12 4 4.8 98.65      

Notes on Data Quality.

Legend

  • E = Estimated
  • M = Missing
  • NA = Not Available*
  • [empty] = Indicates an unobserved value
Date modified: